Regional Weather Roundup
Issued by NWS

Home | Current Version | Previous Version | Graphics & Text | Print | Product List | Glossary Off
Versions: 1 2 3 4 5 6 7 8 9 10 11 12 13 14 15 16 17 18 19 20 21 22 23 24 25 26 27 28 29 30 31 32 33 34 35 36 37 38 39 40 41 42 43 44 45 46 47 48 49 50

000
ASUS43 KDMX 061506
RWRIA

WEATHER ROUNDUP FOR IOWA
NATIONAL WEATHER SERVICE DES MOINES IA
900 AM CST TUE DEC 06 2016

NOTE: "FAIR" INDICATES FEW OR NO CLOUDS BELOW 12,000 FEET WITH NO
SIGNIFICANT WEATHER AND/OR OBSTRUCTIONS TO VISIBILITY.

* - THESE STATIONS ARE NOT NWS STATIONS...THUS NOT UNDER NWS
QUALITY CONTROL.  THEY ALSO DO NOT REPORT WEATHER SUCH
AS PRECIPITATION OR FOG.

IAZ001>003-012>014-020>022-031>034-043>046-061600-
   NORTHWEST IOWA

CITY           SKY/WX    TMP DP  RH WIND       PRES   REMARKS
CARROLL *      SUNNY     21  14  73 W16G22    29.93R WCI   7
CHEROKEE *     SUNNY     20  13  74 W15G26    29.91S WCI   6
DENISON *      SUNNY     21  12  68 W16       29.93R WCI   7
LE MARS *      PTSUNNY   21  10  63 W13G24    29.94S WCI   9
ORANGE CITY *  PTSUNNY   19  12  73 W24G33    29.89R WCI   2
SHELDON *      CLOUDY    18  12  79 W22       29.86R WCI   0
SIOUX CITY     SUNNY     23  12  62 NW16G23   29.95S WCI  10
SPENCER        CLOUDY    19  11  70 W28G39    29.87R WCI   1
STORM LAKE *   SUNNY     19  12  73 W28       29.88S WCI   1
$$

IAZ055>058-069>071-079>083-090>094-061600-
   SOUTHWEST IOWA

CITY           SKY/WX    TMP DP  RH WIND       PRES   REMARKS
ATLANTIC *     SUNNY     23  16  74 W14       29.98R WCI  11
AUDUBON *      SUNNY     21  14  73 W10G16    29.94R WCI  10
CLARINDA *       N/A     27  14  59 NW15G24   30.04R WCI  15
COUNCIL BLFS * SUNNY     23  14  68 W13       29.99S WCI  11
CRESTON *      SUNNY     25  16  68 W23       29.96R WCI  10
LAMONI         SUNNY     28  17  63 NW18G28   29.94R WCI  15
RED OAK *      SUNNY     25  14  63 NW10      30.01R WCI  15
SHENANDOAH *   SUNNY     27  14  59 NW13G23   30.03R WCI  16
$$

IAZ047>049-059>061-072>074-084-061600-
   CENTRAL IOWA

CITY           SKY/WX    TMP DP  RH WIND       PRES   REMARKS
AMES           SUNNY     24  19  81 W20G26    29.90R WCI  10
ANKENY *       MOSUNNY   27 N/A N/A NW15G24   29.94R WCI  15
BOONE *        SUNNY     21  14  73 W21G28    29.89R WCI   6
CHARITON *       N/A     28  21  74 NW14G28   29.92R WCI  17
DES MOINES     MOSUNNY   28  17  63 NW18      29.93R WCI  15
GRINNELL*      MOSUNNY   29  23  78 W21G28    29.88R WCI  15
KNOXVILLE *    MOSUNNY   30  19  64 NW17G26   29.90R WCI  18
MARSHALLTOWN   SUNNY     27  20  75 W18G26    29.87R WCI  14
NEWTON *       MOSUNNY   28  21  74 W20       29.89R WCI  15
PELLA *        SUNNY     30  22  73 NW14G23   29.92R WCI  20
PERRY *          N/A     25  21  85 W18G24    29.93R WCI  11
$$

IAZ004>006-015-016-023>025-035-036-061600-
   NORTH CENTRAL IOWA

CITY           SKY/WX    TMP DP  RH WIND       PRES   REMARKS
ALGONA *       PTSUNNY   19  14  79 W25       29.85S WCI   2
CLARION *      PTSUNNY   21  16  79 W23G29    29.88R WCI   5
ESTHERVILLE    CLOUDY    19  12  74 W20G29    29.83F WCI   3
FORT DODGE *   SUNNY     21  12  68 W17G24    29.90R WCI   7
MASON CITY     MOSUNNY   20  14  77 W29G35    29.84R WCI   1
WEBSTER CITY * SUNNY     23  18  80 W22       29.87R WCI   8
$$

IAZ007>011-017>019-026>030-037>042-050>054-066-061600-
   NORTHEAST IOWA

CITY           SKY/WX    TMP DP  RH WIND       PRES   REMARKS
CEDAR RAPIDS   CLOUDY    31  28  89 NW20      29.83R WCI  19
CHARLES CITY * MOSUNNY   23  16  74 W23G33    29.82R WCI   7
CLINTON *      LGT RAIN  33  33 100 S5        29.80S VSB 1/4 WCI  29
DECORAH *      CLOUDY    28  25  86 W9G22     29.77R WCI  20
DUBUQUE        FOG       32  32 100 SW7       29.77R VSB 1/2 WCI  26
MONTICELLO *   CLOUDY    34  32  93 W9        29.80R WCI  26
OELWEIN *      CLOUDY    28  23  80 W20G26    29.82R WCI  15
WATERLOO       MOSUNNY   27  19  72 W18G24    29.85R WCI  14
$$

IAZ064-065-067-068-078-061600-
   EAST CENTRAL IOWA

CITY           SKY/WX    TMP DP  RH WIND       PRES   REMARKS
DAVENPORT      FOG       33  33 100 SW5       29.81R VSB 1/2 WCI  29
IOWA CITY      CLOUDY    35  29  78 NW13      29.85R WCI  26
MUSCATINE *    CLOUDY    37  34  87 NW15      29.85R FOG     WCI  28
QUAD CITIES    FOG       34  33  96 SW3       29.81R VSB 3/4
$$

IAZ062-063-075>077-085>089-095>099-061600-
   SOUTHEAST IOWA

CITY           SKY/WX    TMP DP  RH WIND       PRES   REMARKS
BURLINGTON     CLOUDY    36  36 100 W5        29.83R FOG     WCI  32
FAIRFIELD *    CLOUDY    34  28  80 NW18G26   29.86R WCI  23
FORT MADISON * CLOUDY    36  36 100 NW14      29.86R FOG     WCI  27
KEOKUK *       CLOUDY    37  36  93 NW10G17   29.85R WCI  30
OSKALOOSA *    CLOUDY    31  24  76 NW22G31   29.89R WCI  18
CENTERVILLE *    N/A     32  27  80 W21       29.92R WCI  20
OTTUMWA        CLOUDY    33  24  69 NW15      29.89R WCI  23
WASHINGTON *   CLOUDY    34  32  93 NW16G24   29.87R WCI  23
$$

ABBREVIATIONS USED IN REMARKS
   TC - TEMPERATURES IN CELSIUS
  WCI - WIND CHILL INDEX
   HX - HEAT INDEX
  VSB - VISIBILITY
$$




USA.gov is the U.S. government's official web portal to all federal, state and local government web resources and services.